BMCB-9 Weather Reports


time (UTC)temp
C
wind
direction
speed
KPH
gust
KPH
rain 1hr
cm
rain 24hr
cm
rain mn
cm
humidity
%
barometer
mb
20260506224056 7 0 0.0 0.0 0.00 1.12 0.00 98 1012.7
20260506222057 7 0 0.0 0.0 0.00 1.17 0.00 98 1012.6
20260506221056 7 0 0.0 0.0 0.00 1.17 0.00 97 1012.5
20260506215058 7 0 0.0 0.0 0.00 1.22 1.19 97 1012.4
20260506214058 7 0 0.0 0.0 0.00 1.24 1.19 97 1012.3
20260506213055 6 0 0.0 0.0 0.00 1.27 1.19 97 1012.3
20260506212058 6 0 0.0 0.0 0.00 1.27 1.19 96 1012.2
20260506211100 6 0 0.0 0.0 0.00 1.27 1.19 95 1012.0
20260506210059 7 0 0.0 0.0 0.00 1.30 1.19 95 1011.9
20260506204058 7 0 0.0 0.0 0.00 1.35 1.19 94 1011.8
20260506203100 7 0 0.0 0.0 0.00 1.37 1.19 93 1011.8
20260506202100 8 0 0.0 0.0 0.00 1.37 1.19 91 1011.7
20260506201101 8 0 0.0 0.0 0.00 1.37 1.19 88 1011.6
20260506200059 8 0 0.0 0.0 0.00 1.40 1.19 89 1011.5
20260506194100 9 0 0.0 0.0 0.00 1.45 1.19 94 1011.2
20260506193059 9 0 0.0 0.0 0.00 1.45 1.19 93 1011.2
20260506192058 10 0 0.0 0.0 0.00 1.50 1.19 92 1011.0
20260506191058 10 0 0.0 0.0 0.00 1.50 1.19 92 1010.9
20260506190100 10 0 0.0 0.0 0.00 1.50 1.19 91 1010.8
20260506185059 10 0 0.0 0.0 0.00 1.52 1.19 90 1010.7
20260506183059 11 0 0.0 0.0 0.00 1.55 1.19 84 1010.4
20260506182059 11 0 0.0 0.0 0.00 1.55 1.19 80 1010.3
20260506181057 11 0 0.0 0.0 0.00 1.60 1.19 80 1010.2
20260506180059 11 0 0.0 0.0 0.00 1.60 1.19 84 1010.0
20260506173057 11 0 0.0 0.0 0.00 1.65 1.19 89 1009.7
20260506172059 12 0 0.0 0.0 0.00 1.65 1.19 86 1009.5
20260506171057 12 0 0.0 0.0 0.00 1.68 1.19 84 1009.4
20260506170055 12 0 0.0 0.0 0.00 1.68 1.19 85 1009.4
20260506165055 12 0 0.0 0.0 0.00 1.70 1.19 84 1009.3
20260506164057 12 0 0.0 0.0 0.00 1.70 1.19 81 1009.2
20260506163056 12 0 0.0 0.0 0.00 1.70 1.19 83 1009.2
20260506162058 12 0 0.0 0.0 0.00 1.70 1.19 83 1009.3
20260506161057 12 0 0.0 0.0 0.00 1.70 1.19 81 1009.3
20260506160055 12 0 0.0 0.0 0.00 1.70 1.19 76 1009.2
20260506155057 12 0 0.0 0.0 0.00 1.70 1.19 77 1009.2
20260506154059 12 0 0.0 0.0 0.00 1.70 1.19 78 1009.2
20260506153057 12 0 0.0 0.0 0.00 1.70 1.19 78 1009.1
20260506152057 12 0 0.0 0.0 0.00 1.70 1.19 82 1009.1
20260506151058 12 0 0.0 0.0 0.00 1.70 1.19 84 1009.1
20260506150055 11 0 0.0 0.0 0.00 1.70 1.19 86 1009.1
20260506144056 11 0 0.0 0.0 0.00 1.70 1.19 91 1009.2
20260506142055 11 0 0.0 0.0 0.00 1.70 1.19 91 1009.3
20260506141056 11 0 0.0 0.0 0.00 1.70 1.19 90 1009.3
20260506135057 11 0 0.0 0.0 0.00 1.70 1.19 89 1009.3
20260506133057 11 0 0.0 0.0 0.00 1.70 1.19 90 1009.3
20260506132058 11 0 0.0 0.0 0.00 1.70 1.19 87 1009.3
20260506131058 11 0 0.0 0.0 0.00 1.70 1.19 84 1009.2
20260506125056 11 0 0.0 0.0 0.00 1.70 1.19 81 1009.1
20260506124055 11 0 0.0 0.0 0.00 1.70 1.19 82 1009.1
20260506123057 11 0 0.0 0.0 0.00 1.70 1.19 84 1009.0
20260506122056 11 0 0.0 0.0 0.00 1.70 1.19 85 1008.9
20260506121054 11 0 0.0 0.0 0.00 1.70 1.19 87 1008.9
20260506120054 11 0 0.0 0.0 0.00 1.70 1.19 89 1008.9
20260506115056 10 0 0.0 0.0 0.00 1.70 1.19 90 1008.9
20260506114057 10 0 0.0 0.0 0.00 1.70 1.19 93 1008.9
20260506113057 10 0 0.0 0.0 0.00 1.70 1.19 94 1008.9
20260506112057 10 0 0.0 0.0 0.00 1.70 1.19 92 1008.9
20260506110056 10 0 0.0 0.0 0.00 1.70 1.19 93 1009.0
20260506105055 10 0 0.0 0.0 0.03 1.70 1.19 95 1009.1
20260506103057 9 0 0.0 0.0 0.03 1.70 1.19 95 1009.0
20260506101055 9 0 0.0 0.0 0.05 1.70 1.19 96 1008.9
20260506095056 9 0 0.0 0.0 0.08 1.70 1.19 97 1008.7
20260506094056 9 0 0.0 0.0 0.08 1.68 1.17 97 1008.7
20260506093055 8 0 0.0 0.0 0.08 1.68 1.17 97 1008.6
20260506092055 8 0 0.0 0.0 0.08 1.68 1.17 97 1008.5
20260506091055 8 0 0.0 0.0 0.08 1.65 1.17 97 1008.5
20260506090057 8 0 0.0 0.0 0.10 1.65 1.17 97 1008.4
20260506085055 8 0 0.0 0.0 0.08 1.65 1.14 98 1008.3
20260506084055 8 0 0.0 0.0 0.08 1.63 1.12 98 1008.2
20260506082054 8 0 0.0 0.0 0.05 1.60 1.09 98 1008.1
20260506081054 8 0 0.0 0.0 0.08 1.60 1.09 99 1008.0
20260506073055 8 0 0.0 0.0 0.05 1.55 1.04 99 1007.7
20260506071055 8 0 0.0 0.0 0.08 1.55 1.04 10 1007.6
20260506061054 8 0 0.0 0.0 0.23 1.47 0.99 99 1007.5
20260506051053 8 0 0.0 0.0 0.20 1.40 0.84 98 1007.5
20260506045052 8 0 0.0 0.0 0.20 1.35 0.76 98 1007.4
20260506042052 8 0 0.0 0.0 0.13 1.37 0.69 97 1007.3
20260506041053 8 0 0.0 0.0 0.13 1.37 0.66 97 1007.3
20260506040054 8 0 0.0 0.0 0.10 1.37 0.64 98 1007.3
20260506035056 8 0 0.0 0.0 0.10 1.35 0.61 98 1007.3
20260506030052 8 0 0.0 0.0 0.08 1.27 0.53 97 1007.4
20260506025054 8 0 0.0 0.0 0.08 1.27 0.53 97 1007.4
20260506024053 8 0 0.0 0.0 0.08 1.24 0.51 97 1007.5
20260506022054 8 0 0.0 0.0 0.10 1.24 0.51 97 1007.5
20260506021054 8 0 0.0 0.0 0.10 1.22 0.51 97 1007.5
20260506015055 9 0 0.0 0.0 0.10 1.17 0.46 97 1007.5
20260506014054 9 0 0.0 0.0 0.10 1.17 0.46 98 1007.5
20260506012053 9 0 0.0 0.0 0.13 1.17 0.43 98 1007.6
20260506011054 9 0 0.0 0.0 0.13 1.14 0.43 98 1007.6
20260506005053 9 0 0.0 0.0 0.15 1.12 0.41 98 1007.7
20260506003052 9 0 0.0 0.0 0.15 1.09 0.36 98 1007.8
20260506002055 9 0 0.0 0.0 0.15 1.07 0.33 98 1007.9
20260506001053 9 0 0.0 0.0 0.15 1.04 0.33 98 1007.9
20260506000056 9 0 0.0 0.0 0.15 1.02 0.30 98 1008.0
20260505235056 9 0 0.0 0.0 0.15 0.99 0.28 98 1008.1
20260505233055 10 0 0.0 0.0 0.18 0.97 0.23 97 1008.2
20260505232057 10 0 0.0 0.0 0.18 0.94 0.23 97 1008.2
20260505230056 10 0 0.0 0.0 0.18 0.89 0.18 97 1008.3